Decatur, AL

2:00 PM CDT on June 23, 2017 (GMT -0500)
Pryor Regional

Weather History for KDCU - January, 2014

Change the Weather History Date:

Wednesday, January 29, 2014

  Actual Average Record
Temperature  
Mean Temperature 16 °F -  
Max Temperature 28 °F 51 °F 72 °F (1957)
Min Temperature 5 °F 29 °F 5 °F (2014)
Degree Days  
Heating Degree Days 48    
Moisture  
Dew Point 0 °F    
Average Humidity 54    
Maximum Humidity 77    
Minimum Humidity 27    
Precipitation  
Precipitation 0.00 in - - ()
Sea Level Pressure  
Sea Level Pressure 30.42 in    
Wind  
Wind Speed 4 mph (NNW)    
Max Wind Speed 10 mph    
Max Gust Speed 16 mph    
Visibility 10 miles    
Events      
Averages and records for this station are not official NWS values.
T = Trace of Precipitation, MM = Missing Value Source: NWS Daily Summary

Daily Weather History Graph

Daily Weather History Graph

Search for Another Location

Airport or City:

Trip Planner

Search our weather history database for the weather conditions in past years. The results will help you decide how hot, cold, wet, or windy it might be!

Date:

Astronomy

Jan. 29, 2014 Rise Set
Actual Time 6:48 AM CST 5:14 PM CST
Civil Twilight 6:21 AM CST 5:40 PM CST
Nautical Twilight 5:51 AM CST 6:11 PM CST
Astronomical Twilight 5:21 AM CST 6:40 PM CST
Moon 5:23 AM CST (1/29) 4:13 PM CST (1/29)
Length of Visible Light 11h 19m
Length of Day
10h 26m
Waning Crescent, 2% of the Moon is Illuminated
Jan 29
Waning Crescent
Jan 30
New
Feb 6
First Quarter
Feb 14
Full
Feb 22
Last Quarter

Hourly Weather History & Observations

Time (CST) Temp. Windchill Dew Point Humidity Pressure Visibility Wind Dir Wind Speed Gust Speed Precip Events Conditions
12:53 AM 9.0 °F 0.6 °F -0.9 °F 64% 30.42 in 10.0 mi North 4.6 mph - N/A   Clear
1:53 AM 8.1 °F -2.0 °F -0.9 °F 67% 30.41 in 10.0 mi North 5.8 mph - N/A   Clear
2:53 AM 6.1 °F -4.3 °F -2.0 °F 69% 30.43 in 10.0 mi North 5.8 mph - N/A   Clear
3:53 AM 6.1 °F -0.9 °F -2.9 °F 67% 30.43 in 10.0 mi North 3.5 mph - N/A   Clear
4:53 AM 5.0 °F - -2.0 °F 73% 30.42 in 10.0 mi Calm Calm - N/A   Clear
5:53 AM 5.0 °F - -2.0 °F 73% 30.44 in 10.0 mi Calm Calm - N/A   Clear
6:53 AM 5.0 °F - -0.9 °F 76% 30.45 in 10.0 mi Calm Calm - N/A   Clear
7:53 AM 10.0 °F 1.8 °F -0.9 °F 61% 30.48 in 10.0 mi North 4.6 mph - N/A   Clear
8:53 AM 15.1 °F 6.4 °F -2.0 °F 47% 30.49 in 10.0 mi NNE 5.8 mph - N/A   Clear
9:53 AM 19.0 °F 8.2 °F -2.0 °F 40% 30.48 in 10.0 mi NNE 9.2 mph - N/A   Clear
10:53 AM 21.0 °F 14.6 °F -2.9 °F 35% 30.49 in 10.0 mi NNW 4.6 mph - N/A   Clear
11:53 AM 24.1 °F 13.7 °F -4.0 °F 29% 30.45 in 10.0 mi NW 10.4 mph 16.1 mph N/A   Clear
12:53 PM 27.0 °F 23.0 °F -2.0 °F 29% 30.43 in 10.0 mi Variable 3.5 mph - N/A   Clear
1:53 PM 27.0 °F 23.0 °F -2.9 °F 27% 30.42 in 10.0 mi Variable 3.5 mph - N/A   Clear
2:53 PM 28.9 °F 21.9 °F -0.9 °F 28% 30.40 in 10.0 mi WNW 6.9 mph - N/A   Clear
3:53 PM 28.0 °F 20.0 °F 1.0 °F 31% 30.40 in 10.0 mi West 8.1 mph - N/A   Clear
4:53 PM 27.0 °F 20.5 °F -0.0 °F 31% 30.40 in 10.0 mi West 5.8 mph - N/A   Clear
5:53 PM 21.9 °F - 1.0 °F 40% 30.40 in 10.0 mi Calm Calm - N/A   Clear
6:53 PM 18.0 °F - 1.9 °F 50% 30.40 in 10.0 mi Calm Calm - N/A   Clear
7:53 PM 12.9 °F - 1.9 °F 62% 30.39 in 10.0 mi Calm Calm - N/A   Clear
8:53 PM 12.9 °F - 3.9 °F 67% 30.38 in 10.0 mi Calm Calm - N/A   Clear
9:53 PM 10.0 °F - 3.9 °F 76% 30.40 in 10.0 mi Calm Calm - N/A   Clear
10:53 PM 10.0 °F - 3.9 °F 76% 30.39 in 10.0 mi Calm Calm - N/A   Clear
11:53 PM 9.0 °F - 3.0 °F 77% 30.38 in 10.0 mi Calm Calm - N/A   Clear